Content
SEND FEEDBACK

Daily
Averages
Monthly
Summary
United States of America

FAYETTEVILLE, TENNESSEE


Home > North America > United States > Tennessee
Elevation: 700 feet     Latitude: 35 10N     Longitude: 086 33W

WEATHER
 
SELECT A DAY
Number of Records: 307,847;   Date Range: 4/22/02 - 11/25/14
 
SHARE

PRINT THIS DATA

[ ← Previous Day ]
WEATHER ALMANAC - MAY 15, 2014
[ Next Day → ]
[ °C ]   °F
Weather ElementAverageHighLow
Temperature53.7 °F60.8 °F (2:15 pm)46.4 °F (10:55 pm)
Dewpoint43.3 °F51.8 °F (12:35 am)35.6 °F (5:55 pm)
Humidity70 %94 % (12:35 am)39 % (5:55 pm)
Barometer30.07 in30.13 in (9:15 pm)29.97 in (12:35 am)
Wind Speed7.8 mph20.7 mph (11:15 am)
Wind Gust25.3 mph (11:15 am)
Weather ElementAverage
Visibility9.5 mi
Wind DirectionWSW (242.7 °)

Weather ElementTotal
Precipitation---
Heating Degree Days11.4 (Base 65)
Growing Degree Days3.6 (Base 50)
Averaged from 67 records on May 15, 2014
WEATHER CONDITIONS BREAKOUT
WIND DIRECTION BREAKOUT
WEATHER BY HOUR - MAY 15, 2014
[ °C ]   °F
Local TimeTemperatureDewpointHumidityBarometerVisibilityWind DirectionWind SpeedGust SpeedPrecipitationEventsConditions
12:35 AM53.6 °F51.8 °F94 %29.97 in5.0 miWNW (290°)8.1 mphDrizzle
12:55 AM53.6 °F50.0 °F88 %29.97 in4.0 miWest (270°)5.8 mphHeavy Drizzle
1:15 AM53.6 °F50.0 °F88 %29.97 in10.0 miWest (280°)10.4 mphOvercast
1:35 AM53.6 °F50.0 °F88 %29.97 in10.0 miWest (280°)10.4 mphOvercast
1:55 AM51.8 °F50.0 °F94 %29.97 in7.0 miWest (270°)10.4 mphRainLight Rain
2:15 AM51.8 °F48.2 °F88 %29.97 in10.0 miWNW (290°)9.2 mphOvercast
2:35 AM51.8 °F46.4 °F82 %29.97 in10.0 miWNW (290°)4.6 mphOvercast
2:55 AM51.8 °F46.4 °F82 %29.97 in10.0 miWNW (290°)8.1 mphMostly Cloudy
3:15 AM51.8 °F46.4 °F82 %29.98 in10.0 miWest (280°)9.2 mphMostly Cloudy
3:35 AM51.8 °F46.4 °F82 %29.99 in10.0 miWest (280°)5.8 mphOvercast
3:55 AM51.8 °F46.4 °F82 %29.99 in10.0 miWNW (290°)8.1 mphOvercast
4:15 AM51.8 °F46.4 °F82 %29.99 in10.0 miWest (280°)5.8 mphMostly Cloudy
4:55 AM50.0 °F46.4 °F87 %30.00 in3.0 miWNW (290°)5.8 mphDrizzle
5:15 AM50.0 °F46.4 °F87 %30.01 in10.0 miWNW (300°)9.2 mphMostly Cloudy
5:35 AM50.0 °F44.6 °F82 %30.02 in7.0 miWNW (290°)6.9 mphOvercast
5:55 AM50.0 °F44.6 °F82 %30.03 in10.0 miWNW (300°)5.8 mphOvercast
6:15 AM50.0 °F44.6 °F82 %30.03 in10.0 miWNW (300°)8.1 mphOvercast
6:55 AM50.0 °F44.6 °F82 %30.05 in10.0 miWNW (290°)9.2 mphMostly Cloudy
7:15 AM50.0 °F44.6 °F82 %30.05 in10.0 miWNW (290°)5.8 mphMostly Cloudy
7:35 AM51.8 °F44.6 °F76 %30.06 in10.0 miWNW (290°)6.9 mphOvercast
7:55 AM51.8 °F46.4 °F82 %30.06 in10.0 miWNW (300°)8.1 mphOvercast
8:15 AM51.8 °F44.6 °F76 %30.06 in10.0 miWNW (290°)8.1 mphOvercast
8:35 AM51.8 °F42.8 °F71 %30.06 in10.0 miWNW (300°)11.5 mphOvercast
8:55 AM53.6 °F44.6 °F72 %30.07 in10.0 miWNW (290°)9.2 mphMostly Cloudy
9:15 AM53.6 °F42.8 °F67 %30.07 in10.0 miWNW (290°)9.2 mphMostly Cloudy
9:35 AM51.8 °F44.6 °F76 %30.09 in5.0 miWNW (290°)5.8 mphLight Drizzle
9:55 AM53.6 °F46.4 °F77 %30.09 in10.0 miWest (270°)8.1 mphScattered Clouds
10:15 AM51.8 °F42.8 °F71 %30.09 in10.0 miWNW (300°)10.4 mphMostly Cloudy
10:35 AM53.6 °F42.8 °F67 %30.09 in10.0 miWNW (300°)11.5 mphScattered Clouds
10:55 AM55.4 °F44.6 °F67 %30.09 in10.0 miNW (320°)11.5 mphClear
11:15 AM55.4 °F42.8 °F63 %30.10 in10.0 miNNW (330°)20.7 mph25.3 mphMostly Cloudy
11:35 AM53.6 °F41.0 °F62 %30.11 in10.0 miWNW (290°)15.0 mph20.7 mphOvercast
11:55 AM55.4 °F42.8 °F63 %30.11 in10.0 miWNW (300°)12.7 mph18.4 mphMostly Cloudy
12:35 PM55.4 °F41.0 °F58 %30.11 in10.0 miNW (310°)11.5 mph18.4 mphScattered Clouds
12:55 PM55.4 °F42.8 °F63 %30.12 in10.0 miWNW (290°)16.1 mph21.9 mphMostly Cloudy
1:15 PM55.4 °F42.8 °F63 %30.11 in10.0 miNW (310°)15.0 mph20.7 mphScattered Clouds
1:55 PM59.0 °F41.0 °F51 %30.11 in10.0 miWNW (300°)11.5 mphScattered Clouds
2:15 PM60.8 °F42.8 °F52 %30.11 in10.0 miNW (310°)13.8 mph18.4 mphScattered Clouds
2:35 PM59.0 °F42.8 °F55 %30.10 in10.0 miWNW (300°)12.7 mph17.3 mphScattered Clouds
2:55 PM60.8 °F42.8 °F52 %30.10 in10.0 miWNW (290°)12.7 mphClear
3:15 PM60.8 °F41.0 °F48 %30.09 in10.0 miNW (320°)9.2 mph17.3 mphScattered Clouds
3:35 PM60.8 °F41.0 °F48 %30.09 in10.0 miNNW (330°)11.5 mph17.3 mphScattered Clouds
3:55 PM60.8 °F41.0 °F48 %30.09 in10.0 miNW (320°)11.5 mph17.3 mphClear
4:15 PM60.8 °F41.0 °F48 %30.09 in10.0 miNW (310°)13.8 mph17.3 mphClear
4:35 PM60.8 °F37.4 °F42 %30.09 in10.0 miNW (320°)11.5 mph18.4 mphClear
4:55 PM60.8 °F37.4 °F42 %30.09 in10.0 miNW (310°)10.4 mph16.1 mphClear
5:15 PM59.0 °F37.4 °F45 %30.09 in10.0 miNNW (330°)10.4 mphClear
5:35 PM60.8 °F37.4 °F42 %30.08 in10.0 miNorth (350°)12.7 mphScattered Clouds
5:55 PM60.8 °F35.6 °F39 %30.08 in10.0 miNNW (330°)9.2 mph16.1 mphScattered Clouds
6:15 PM59.0 °F35.6 °F42 %30.07 in10.0 miNNW (330°)8.1 mphClear
6:35 PM59.0 °F35.6 °F42 %30.07 in10.0 miNW (320°)10.4 mph23.0 mphClear
6:55 PM59.0 °F37.4 °F45 %30.08 in10.0 miNNW (330°)6.9 mphClear
7:15 PM55.4 °F37.4 °F51 %30.08 in10.0 miNW (320°)4.6 mphClear
7:35 PM53.6 °F39.2 °F58 %30.09 in10.0 miNW (320°)3.5 mphClear
7:55 PM53.6 °F41.0 °F62 %30.09 in10.0 miCalmClear
8:15 PM51.8 °F42.8 °F71 %30.11 in10.0 miCalmClear
8:35 PM51.8 °F42.8 °F71 %30.12 in10.0 miCalmClear
8:55 PM50.0 °F42.8 °F76 %30.12 in10.0 miCalmClear
9:15 PM50.0 °F42.8 °F76 %30.13 in10.0 miCalmClear
9:35 PM50.0 °F44.6 °F82 %30.13 in10.0 miCalmClear
9:55 PM50.0 °F44.6 °F82 %30.13 in10.0 miCalmClear
10:15 PM48.2 °F44.6 °F87 %30.12 in10.0 miCalmClear
10:35 PM48.2 °F44.6 °F87 %30.12 in10.0 miCalmClear
10:55 PM46.4 °F42.8 °F87 %30.12 in7.0 miCalmClear
11:15 PM46.4 °F44.6 °F93 %30.10 in10.0 miCalmClear
11:35 PM46.4 °F42.8 °F87 %30.11 in10.0 miCalmClear
11:55 PM46.4 °F42.8 °F87 %30.11 in10.0 miCalmClear
Hourly data recorded from KMDQ, located miles away from Fayetteville, Tennessee







STORIES FROM OUR PARTNERS